Location: Dittelspoint
(48.7198°N, 10.7214°E)
Time: 23:45:02
(UTC+00:00)

BREEZE-M DEB (TANK) - Pass Details

Date: 09 April 2020
Orbit: 321 x 11933 km, 49.7° (Epoch: 29 May)

Event Time Altitude Azimuth Distance (km) Brightness Sun altitude
Rises 18:25:17 0° 284° (WNW) 6,392 11.8 -4.8°
Reaches altitude 10° 18:31:07 10° 284° (WNW) 3,931 9.6 -5.7°
Maximum altitude 18:38:54 78° 200° (SSW) 678 3.9 -6.9°
Drops below altitude 10° 18:41:52 10° 114° (ESE) 1,538 5.0 -7.4°
Enters shadow 18:41:54 10° 114° (ESE) 1,551 5.0 -7.4°
